Buenos Aires, Argentina

1:49 AM America en Diciembre 13, 2017 (GMT +0000)
Jorge Newbery Aeroparque

Tiempo Historia de SABE - Diciembre, 2017

Change the Weather History Date:

Jueves, Diciembre 7, 2017

  Actual Average Record
Temperature  
Temperatura media 74 ° F -  
Temperatura máxima 82 ° F 81 ° F 90 ° F (2016)
Temperatura mínima 66 ° F 67 ° F 55 ° F (1999)
Cooling Degree Days 9    
Growing Degree Days 24 (Base 50)    
Moisture  
Punto de rocío 63 ° F    
Average Humidity 70    
Maximum Humidity 88    
Minimum Humidity 36    
Precipitación  
Precipitación 0.00 pul 0.13 pul - ()
Presión al nivel del mar  
Presión al nivel del mar 29.81 pul    
Viento  
Velocidad del viento 6 mph ()    
Velocidad máxima del viento 17 mph    
Max Gust Speed 30 mph    
Visibilidad 5.8 Millas    
Eventos Lluvia , Tormenta    
Averages and records for this station are not official NWS values.
T = Trace of Precipitation, MM = Missing Value Source: Averaged Metar Reports

Daily Weather History Graph

Daily Weather History Graph

Search for Another Location

Airport or City:

Trip Planner

Search our weather history database for the weather conditions in past years. The results will help you decide how hot, cold, wet, or windy it might be!

Date:

Astronomía

Dec. 07, 2017 Salida Puesta
Hora real 5:33 AM -03 7:57 PM -03
Crepúsculo civil 5:04 AM -03 8:26 PM -03
Crepúsculo náutico 4:28 AM -03 9:02 PM -03
Crepúsculo astronómico 3:49 AM -03 9:41 PM -03
Luna 11:51 PM -03 (12/7) 9:44 AM -03 (12/7)
Horas de luz 15h 21m
Horas de luz
14h 23m
Gibosa menguante, 79% of the Moon is Illuminated
Dic 7
Gibosa menguante
Dic 10
Cuarto menguante
Dic 18
Nueva
Dic 26
Cuarto creciente
Ene 1
Luna llena

Hourly Weather History & Observations

Hora (-03) Temp. Índice de calor Punto de rocío Humedad Presión Visibilidad Wind Dir Velocidad del viento Velocidad de ráfagas Precip Eventos Condiciones
12:00 AM 75 ° F - 69 ° F 77% 29.83 pul 6 mi ESE 2.3 mph - -   Nubes dispersas
12:00 AM 75.2 ° F - 69.8 ° F 83% 29.80 pul 6.2 mi ENE 1.2 mph - N/A   Parcialmente nublado
12:30 AM 75.2 ° F - 62.6 ° F 65% 29.86 pul 6.2 mi SO 8.1 mph 25.3 mph N/A   Muy nublado
12:45 AM 68.0 ° F - 62.6 ° F 83% 29.86 pul 1.2 mi Sur 13.8 mph 29.9 mph N/A Lluvia , Tormenta Tormenta
1:00 AM 68.0 ° F - 62.6 ° F 83% 29.86 pul 5.0 mi Sur 15.0 mph - N/A Lluvia , Tormenta Tormenta
2:00 AM 66.2 ° F - 59.0 ° F 78% 29.83 pul - ESE 4.6 mph - N/A   Despejado
3:00 AM 66 ° F - 62 ° F 83% 29.83 pul 6 mi Oeste 2.3 mph - -   Parcialmente nublado
3:00 AM 66.2 ° F - 62.6 ° F 88% 29.80 pul - Variable 2.3 mph - N/A   Despejado
4:00 AM 68.0 ° F - 62.6 ° F 83% 29.80 pul - Oeste 3.5 mph - N/A   Despejado
5:00 AM 68.0 ° F - 62.6 ° F 83% 29.80 pul - Variable 2.3 mph - N/A   Despejado
6:00 AM 69 ° F - 62 ° F 71% 29.84 pul 6 mi NO 2.3 mph - -  
6:00 AM 69.8 ° F - 60.8 ° F 73% 29.83 pul - NO 2.3 mph - N/A   Despejado
7:00 AM 71.6 ° F - 59.0 ° F 64% 29.83 pul - SO 4.6 mph - N/A   Despejado
8:00 AM 73.4 ° F - 57.2 ° F 57% 29.86 pul - Sur 3.5 mph - N/A   Despejado
9:00 AM 75 ° F - 58 ° F 46% 29.86 pul 6 mi Sur 3.5 mph - -  
9:00 AM 75.2 ° F - 59.0 ° F 57% 29.86 pul - Sur 3.5 mph - N/A   Despejado
10:00 AM 77.0 ° F - 59.0 ° F 54% 29.83 pul - SO 5.8 mph - N/A   Despejado
11:00 AM 80.6 ° F 81.1 ° F 59.0 ° F 48% 29.83 pul - OSO 4.6 mph - N/A   Despejado
12:00 PM 82 ° F - 60 ° F 36% 29.83 pul 6 mi Sin viento Sin viento - -  
12:00 PM 82.4 ° F 82.5 ° F 59.0 ° F 45% 29.83 pul - Sin viento Sin viento - N/A   Despejado
1:00 PM 78.8 ° F - 64.4 ° F 61% 29.80 pul - Este 11.5 mph - N/A   Despejado
2:00 PM 78.8 ° F - 66.2 ° F 65% 29.80 pul - ENE 11.5 mph - N/A   Despejado
3:00 PM 79 ° F - 66 ° F 57% 29.80 pul 6 mi Este 12.7 mph - -  
3:00 PM 78.8 ° F - 66.2 ° F 65% 29.80 pul - Este 12.7 mph - N/A   Despejado
4:00 PM 78.8 ° F - 66.2 ° F 65% 29.77 pul - Este 12.7 mph - N/A   Despejado
5:00 PM 77.0 ° F - 68.0 ° F 74% 29.74 pul 6.2 mi Este 15.0 mph - N/A   Parcialmente nublado
6:00 PM 73 ° F - 65 ° F 69% 29.77 pul 6 mi ESE 17.3 mph - -   Parcialmente nublado
6:00 PM 73.4 ° F - 68.0 ° F 83% 29.74 pul 6.2 mi Este 17.3 mph - N/A   Muy nublado
7:00 PM 71.6 ° F - 66.2 ° F 83% 29.74 pul 6.2 mi Este 17.3 mph - N/A   Muy nublado
8:00 PM 71.6 ° F - 66.2 ° F 83% 29.74 pul 6.2 mi Este 15.0 mph - N/A   Muy nublado
9:00 PM 70 ° F - 64 ° F 76% 29.79 pul 6 mi ESE 15.0 mph - -   Muy nublado
9:00 PM 69.8 ° F - 64.4 ° F 83% 29.77 pul 6.2 mi Este 15.0 mph - N/A   Muy nublado
10:00 PM 69.8 ° F - 66.2 ° F 88% 29.77 pul 6.2 mi Este 15.0 mph - N/A   Nubes dispersas
11:00 PM 69.8 ° F - 64.4 ° F 83% 29.80 pul - Este 11.5 mph - N/A   Despejado